Location: Unspecified
(0.0000°N, 0.0000°E)
Time: 17:36:19
(UTC+01:00)

Cosmos 2219 - Visible Passes

Search period start: 18 December 2017 00:00
Search period end: 28 December 2017 00:00
Orbit: 835 x 859 km, 71.1° (Epoch: 18 December)

Date Brightness Start Highest point End Pass type
(mag) Time Alt. Az. Time Alt. Az. Time Alt. Az.
18 Dec 6.3 19:43:39 10° WNW 19:46:52 15° WSW 19:50:06 10° SW visible
19 Dec 6.3 19:30:02 10° WNW 19:33:22 16° WSW 19:36:45 10° SW visible
20 Dec 3.2 06:29:12 10° SSW 06:34:50 63° WNW 06:40:25 10° N visible
20 Dec 6.3 19:16:26 10° WNW 19:19:53 17° WSW 19:23:23 10° SW visible
21 Dec 3.2 06:15:42 10° SSW 06:21:21 65° WNW 06:26:57 10° N visible
22 Dec 3.2 06:02:13 10° SSW 06:07:53 67° WNW 06:13:28 10° N visible
23 Dec 3.1 05:48:43 10° SSW 05:54:23 70° WNW 06:00:00 10° N visible
24 Dec 3.1 05:35:13 10° SSW 05:40:54 72° WNW 05:46:32 10° N visible
25 Dec 3.1 05:21:43 10° SSW 05:27:25 74° WNW 05:33:03 10° N visible
26 Dec 3.0 05:08:14 10° SSW 05:13:56 77° WNW 05:19:34 10° N visible
27 Dec 3.4 04:54:44 10° SSW 04:59:19 58° SSW 04:59:19 58° SSW visible
